Weather History for LIRF - October, 2012

Change the Weather History Date:

Friday, October 26, 2012

  Actual Average Record
Temperature  
Mean Temperature 64 °F -  
Max Temperature 71 °F 64 °F 78 °F (1999)
Min Temperature 57 °F 48 °F 42 °F (2003)
Degree Days  
Heating Degree Days 1    
Growing Degree Days 14 (Base 50)    
Moisture  
Dew Point 59 °F    
Average Humidity 85    
Maximum Humidity 94    
Minimum Humidity 69    
Precipitation  
Precipitation 0.00 in 0.14 in - ()
Sea Level Pressure  
Sea Level Pressure 29.74 in    
Wind  
Wind Speed 8 mph ()    
Max Wind Speed 26 mph    
Max Gust Speed 41 mph    
Visibility 5.1 miles    
Events Rain , Thunderstorm    
Averages and records for this station are not official NWS values.
T = Trace of Precipitation, MM = Missing Value Source: Averaged Metar Reports

Daily Weather History Graph

Daily Weather History Graph

Search for Another Location

Airport or City:

Trip Planner

Search our weather history database for the weather conditions in past years. The results will help you decide how hot, cold, wet, or windy it might be!

Date:

Astronomy

Oct. 26, 2012 Rise Set
Actual Time 7:36 AM CEST 6:12 PM CEST
Civil Twilight 7:07 AM CEST 6:41 PM CEST
Nautical Twilight 6:35 AM CEST 7:14 PM CEST
Astronomical Twilight 6:02 AM CEST 7:46 PM CEST
Moon 4:22 PM CEST (10/26) 4:13 AM CEST (10/26)
Length of Visible Light 11h 33m
Length of Day
10h 36m
Waxing Gibbous, 89% of the Moon is Illuminated
Oct 26
Waxing Gibbous
Oct 29
Full
Nov 7
Last Quarter
Nov 13
New
Nov 20
First Quarter

Hourly Weather History & Observations

Time (CEST) Temp. Dew Point Humidity Pressure Visibility Wind Dir Wind Speed Gust Speed Precip Events Conditions
12:20 AM 57.2 °F 55.4 °F 94% 29.92 in 5.0 mi ENE 5.8 mph - N/A   Unknown
12:50 AM 59.0 °F 55.4 °F 88% 29.89 in 5.0 mi East 8.1 mph - N/A   Unknown
1:20 AM 57.2 °F 55.4 °F 94% 29.89 in 4.3 mi East 4.6 mph - N/A   Unknown
1:50 AM 57.2 °F 55.4 °F 94% 29.89 in 4.3 mi East 6.9 mph - N/A   Unknown
2:20 AM 57.2 °F 55.4 °F 94% 29.89 in 4.3 mi East 4.6 mph - N/A   Unknown
2:50 AM 57.2 °F 55.4 °F 94% 29.89 in 4.3 mi East 6.9 mph - N/A   Unknown
3:20 AM 57.2 °F 55.4 °F 94% 29.89 in 4.3 mi East 6.9 mph - N/A   Unknown
3:50 AM 57.2 °F 53.6 °F 88% 29.86 in 4.3 mi East 5.8 mph - N/A   Unknown
4:20 AM 57.2 °F 53.6 °F 88% 29.86 in 4.3 mi East 6.9 mph - N/A   Unknown
4:50 AM 59.0 °F 55.4 °F 88% 29.86 in 4.3 mi East 6.9 mph - N/A   Unknown
5:20 AM 57.2 °F 55.4 °F 94% 29.86 in 4.3 mi East 5.8 mph - N/A   Partly Cloudy
5:50 AM 57.2 °F 55.4 °F 94% 29.86 in 5.0 mi ENE 3.5 mph - N/A   Partly Cloudy
6:20 AM 57.2 °F 55.4 °F 94% 29.86 in 5.0 mi ENE 4.6 mph - N/A   Scattered Clouds
6:50 AM 59.0 °F 55.4 °F 88% 29.83 in 5.0 mi East 6.9 mph - N/A   Scattered Clouds
7:20 AM 59.0 °F 53.6 °F 82% 29.83 in 5.6 mi East 5.8 mph - N/A   Scattered Clouds
7:50 AM 59.0 °F 55.4 °F 88% 29.83 in 5.0 mi East 4.6 mph - N/A   Scattered Clouds
8:20 AM 59.0 °F 55.4 °F 88% 29.83 in 5.0 mi East 5.8 mph - N/A   Partly Cloudy
8:50 AM 62.6 °F 55.4 °F 77% 29.83 in 5.0 mi East 6.9 mph - N/A   Partly Cloudy
9:20 AM 64.4 °F 57.2 °F 77% 29.83 in 5.6 mi East 8.1 mph - N/A   Partly Cloudy
9:50 AM 66.2 °F 59.0 °F 78% 29.83 in 5.6 mi ESE 8.1 mph - N/A   Partly Cloudy
10:20 AM 68.0 °F 60.8 °F 78% 29.83 in 5.6 mi SE 13.8 mph - N/A   Scattered Clouds
10:50 AM 66.2 °F 60.8 °F 83% 29.83 in 5.6 mi SE 11.5 mph - N/A   Drizzle
11:20 AM 68.0 °F 62.6 °F 83% 29.80 in 5.6 mi SE 9.2 mph - N/A   Drizzle
11:50 AM 69.8 °F 62.6 °F 78% 29.80 in 5.6 mi SE 17.3 mph - N/A   Scattered Clouds
12:20 PM 69.8 °F 62.6 °F 78% 29.80 in 6.2 mi SE 15.0 mph - N/A   Partly Cloudy
12:50 PM 71.6 °F 62.6 °F 73% 29.77 in 6.2 mi SE 13.8 mph - N/A   Partly Cloudy
1:20 PM 71.6 °F 60.8 °F 69% 29.77 in 6.2 mi SSE 13.8 mph - N/A   Scattered Clouds
1:50 PM 71.6 °F 60.8 °F 69% 29.74 in 6.2 mi SSE 16.1 mph - N/A   Scattered Clouds
2:20 PM 71.6 °F 62.6 °F 73% 29.74 in 6.2 mi SSE 15.0 mph - N/A   Mostly Cloudy
2:50 PM 71.6 °F 62.6 °F 73% 29.71 in 6.2 mi SE 16.1 mph - N/A   Scattered Clouds
3:20 PM 69.8 °F 62.6 °F 78% 29.71 in 6.2 mi SSE 17.3 mph - N/A   Mostly Cloudy
3:50 PM 69.8 °F 62.6 °F 78% 29.71 in 6.2 mi SE 13.8 mph - N/A   Light Drizzle
4:20 PM 68.0 °F 62.6 °F 83% 29.71 in 5.0 mi SSE 10.4 mph - N/A Rain Rain Showers
4:50 PM 66.2 °F 62.6 °F 88% 29.68 in 6.2 mi SSE 12.7 mph - N/A Rain Rain
5:20 PM 66.2 °F 62.6 °F 88% 29.65 in 6.2 mi SE 9.2 mph - N/A   Scattered Clouds
5:50 PM 68.0 °F 60.8 °F 78% 29.65 in 6.2 mi SE 9.2 mph - N/A   Scattered Clouds
6:20 PM 68.0 °F 62.6 °F 83% 29.62 in 6.2 mi ESE 8.1 mph - N/A   Scattered Clouds
6:50 PM 66.2 °F 62.6 °F 88% 29.62 in 6.2 mi ESE 9.2 mph - N/A   Scattered Clouds
7:20 PM 66.2 °F 62.6 °F 88% 29.62 in 6.2 mi ESE 11.5 mph - N/A   Light Drizzle
7:50 PM 66.2 °F 62.6 °F 88% 29.59 in 6.2 mi ESE 15.0 mph - N/A Rain Light Rain
8:20 PM 66.2 °F 60.8 °F 83% 29.56 in 6.2 mi SE 15.0 mph - N/A Rain Light Rain
8:50 PM 64.4 °F 60.8 °F 88% 29.56 in 4.3 mi SE 17.3 mph - N/A Rain Rain
9:20 PM 64.4 °F 62.6 °F 94% 29.53 in 3.1 mi SE 12.7 mph - N/A Rain Rain
9:50 PM 66.2 °F 62.6 °F 88% 29.53 in 3.1 mi SE 15.0 mph - N/A Rain , Thunderstorm Thunderstorms and Rain
10:20 PM 64.4 °F 62.6 °F 94% 29.50 in 2.5 mi SSE 15.0 mph - N/A Rain , Thunderstorm Thunderstorms and Rain
10:50 PM 66.2 °F 62.6 °F 88% 29.50 in 3.1 mi SSE 26.5 mph 41.4 mph N/A Rain , Thunderstorm Thunderstorms and Rain
11:20 PM 66.2 °F 62.6 °F 88% 29.50 in 3.7 mi SSE 19.6 mph - N/A Rain Light Rain
11:50 PM 68.0 °F 64.4 °F 88% 29.50 in 5.0 mi SSW 16.1 mph - N/A   Scattered Clouds